Flag for Cameroon Weather past 2 weeks in Yaoundé, Cameroon

Now
79 °F

Partly sunny.


Feels Like: 82 °F
Forecast: 68 / 84 °F
Wind: No wind

Location: Yaounde Airport

Current Time: Oct 26, 2014 at 10:52:40 AM

Latest Report: Oct 26, 2014 at 10:00 AM


Visibility: N/A

Pressure: 30.04 "Hg

Humidity: 79%

Dew point: 72 °F

Location of YaoundéLocation

Historic Weather in Yaoundé — Graph

°F

Yaoundé temperature yesterday

Maximum temperature yesterday: 81 °F (at 3:00 PM)
Minimum temperature yesterday: 68 °F (at 5:00 AM)
Average temperature yesterday: 73 °F

Past Weeks' High & Low Weather Summary

 TemperatureHumidityPressure
High86 °F (Oct 11, 4:00 PM)100% (Oct 12, 1:00 AM)30.12 "Hg (Oct 12, 1:00 AM)
Low66 °F (Oct 12, 1:00 AM)52% (Oct 24, 4:00 PM)29.86 "Hg (Oct 11, 4:00 PM)
Average74 °F85%30.00 "Hg
* Reported Oct 11 9:00 AM — Oct 26 9:00 AM, Yaoundé, Weather by CustomWeather, © 2014

Note: Actual official high and low records may vary slightly from our data, if they occured in-between our weather recording intervals... More about our weather records

Advertising

Yaoundé weather history for previous 24 hours

 ConditionsComfort  
Time TempWeatherWind HumidityBarometerVisibility
9:00 AM
Oct 26
75 °FPartly sunny.1 mph83%30.07 "Hg5 mi
8:00 AM72 °FBroken clouds.2 mph94%30.04 "Hg5 mi
7:00 AM68 °FThunderstorms. Scattered clouds.1 mph100%30.01 "Hg5 mi
6:00 AM68 °FThunderstorms. Scattered clouds.1 mph94%30.01 "Hg5 mi
5:00 AM68 °FThunderstorms. Partly cloudy.2 mph94%30.01 "Hg5 mi
4:00 AM68 °FThunderstorms. Passing clouds.No wind94%30.01 "Hg5 mi
3:00 AM68 °FThunderstorms. Passing clouds.No wind94%29.98 "Hg5 mi
2:00 AM68 °FThunderstorms. Passing clouds.No wind94%30.01 "Hg5 mi
1:00 AM68 °FThunderstorms. Partly cloudy.2 mph94%30.01 "Hg4 mi
12:00 AM68 °FThunderstorms. Partly cloudy.7 mph94%30.04 "Hg4 mi
11:00 PM
Oct 25
72 °FThunderstorms. Passing clouds.No wind94%30.01 "HgN/A
10:00 PM70 °FThunderstorms. Passing clouds.No wind94%30.01 "HgN/A
9:00 PM72 °FThunderstorms. Passing clouds.No wind94%30.01 "HgN/A
8:00 PM72 °FThunderstorms. Passing clouds.No wind94%29.98 "HgN/A
7:00 PM73 °FThunderstorms. Passing clouds.No wind89%29.92 "HgN/A
6:00 PM77 °FPassing clouds.3 mph79%29.92 "HgN/A
5:00 PM81 °FPartly sunny.6 mph66%29.89 "HgN/A
4:00 PM81 °FPartly sunny.6 mph70%29.86 "HgN/A
3:00 PM81 °FPartly sunny.10 mph70%29.89 "HgN/A
1:00 PM79 °FPartly sunny.5 mph74%29.98 "HgN/A
12:00 PM75 °FPartly sunny.9 mph78%30.01 "HgN/A
11:00 AM75 °FThunderstorms. Partly sunny.7 mph78%30.04 "HgN/A
10:00 AM70 °FThunderstorms. Broken clouds.5 mph88%30.04 "Hg4 mi
Weather by CustomWeather, © 2014

See weather overviewHow to use our weather pages